Погода в Балхаше

Хотите узнать прогноз погоды в Балхаше? Тогда Вам сюда: Погода в Балхаше

Поиск расширенной информации на нашем сайте:

Полезная информация:

Новости сайта



02.01.2020
Опубликован Долгосрочный прогноз погоды по городам России и ближнего зарубежья на январь 2020 года.
Карты: Прогноз на январь и февраль 2020 года, Сравнение прогнозируемой аномалии приземной температуры воздуха на январь 2020 года по разным моделям.




Погода в Балхаше - сегодня

Время (UTC), дата Ветер
(°,м/с) 
Видим.   Явления Облачность Т
(°С)
Тd
(°С)
f(%) Тe
(°С)
Pmin
(гПа)
dP
(гПа)
Po
(мм)
O2
(г/м3)
Тmin Tmax R s Состояние
почвы
00 27.06.20 200 (Ю) 5{17}  10 км  дым  9/8 1000 м средняя, верхняя 
[Sc|Ac trans|Ci fib]
+22 +16.5 71 +35  995.1  -0.2  717  264    +2.1       
03 27.06.20 220 (ЮЗ) 13-17  20000 м  пыльный позёмок  8/8 1000 м 
[Cu Sc]
+23.1 +14.5 58 +32  995.2  0.2  717  263           
06 27.06.20 210 (ЮЗ) 12-16  10 км  пыльный позёмок  8/8 1000 м 
[Cu med, cong]
+22.3 +16 68 +34  997.1  1.8  719  264  +21.8         
09 27.06.20 220 (ЮЗ) 11-17  10 км  пыльный позёмок  8/8 1000 м 
[Cu med, cong]
+22.2 +10.4 47 +25  1001.2  3.8  721  267          замёрзшая 
12 27.06.20 250 (З) 9-18{21}  10 км  пыльный позёмок{снег}  8/8 1000 м 
[Cu med, cong]
+20.3 -1.3 23 +20  1005.1  3.4  724  272           
15 27.06.20 280 (З) 8-15{18}  10 км    3/3 1000 м 
[Sc]
+18.8 -0.1 28 +19  1008.3  2.9  726  274    +25       
18 27.06.20 280 (З) 5{15}  10 км    ясно 
+16.4 +4.8 46 +16  1011.3  2.6  728  276    +25       
21 27.06.20 280 (З) 10 км    ясно 
+12.8 +4.1 55 +13  1012.4  0.5  728  280           
00 28.06.20 320 (СЗ) 20000 м    ясно 
+11.7 +3.7 58 +11  1013.7  1.1  729  281           
03 28.06.20 280 (З) 20000 м    9/4 600 м кучево-дожд., средняя, верхняя 
[Cb calv|Ac trans|Ci sp]
+15.6 +4.1 46 +17  1015  1.8  731  278           
06 28.06.20 200 (Ю) 20000 м    8/6 600 м кучево-дожд., верхняя 
[Cb calv|Ci ing]
+17.3 +4.9 44 +17  1015.1  0.4  731  276  +11.4         
09 28.06.20 200 (Ю) 20000 м    8/3 1000 м верхняя 
[Cu med, cong|Ci ing]
+19.4 +7.4 46 +19  1014.8  731  274           
12 28.06.20 180 (Ю) 10 км    3/3 1000 м 
[Cu med, cong]
+19.9 +5.2 38 +20  1014.7  -0.1  731  274           
15 28.06.20 190 (Ю) 10 км    1/0 верхняя 
[Ci fib]
+20.4 +5.4 37 +20  1015.1  0.5  731  273    +20.5       
18 28.06.20 190 (Ю) 10 км    ясно 
+20.3 +8.9 48 +21  1014.6  -0.5  731  273    +20.5       
21 28.06.20 200 (Ю) 10 км    ясно 
+18.9 +12.8 68 +25  1013.5  -1.2  730  273           
00 29.06.20 220 (ЮЗ) 20000 м    8/8 1000 м 
[Sc]
+19.6 +12 61 +25  1013.5  0.1  730  272           
03 29.06.20 210 (ЮЗ) 20000 м    8/1 1000 м средняя 
[Sc|Ac cast]
+19 +15.5 80 +29  1013.9  0.4  730  272           
06 29.06.20 200 (Ю) 10 км    9/8 1000 м средняя 
[Sc|Ac trans]
+20.7 +13.1 62 +27  1013.5  -0.2  730  271  +18.4         
09 29.06.20 210 (ЮЗ) 20000 м    3/1 1000 м средняя 
[Sc|Ac trans]
+23.1 +6.9 35 +23  1012.1  -1.1  729  270           
12 29.06.20 180 (Ю) 10 км    1/1 1000 м 
[Sc]
+23 +14.3 58 +31  1010.3  -1.7  728  268           
15 29.06.20 120 (ЮВ) 10 км    3/3 1000 м 
[Sc]
+22.1 +15 64 +32  1009.9  -0.5  728  268    +24       
18 29.06.20 110 (В) 10 км    ясно 
+20.7 +15.6 73 +31  1009.9  -0.1  728  269    +24       
21 29.06.20 060 (СВ) 10 км    ясно 
+17.2 +10.6 65 +22  1010  -0.5  727  274           
00 30.06.20 050 (СВ) 20000 м    ясно 
+16 +9.1 64 +17  1010.4  0.2  727  275           
Время (UTC), дата Ветер
(°,м/с) 
Видим.   Явления Облачность Т
(°С)
Тd
(°С)
f(%) Тe
(°С)
Pmin
(гПа)
dP
(гПа)
Po
(мм)
O2
(г/м3)
Тmin Tmax R s Состояние
почвы

Для получения пояснительной информации подведите курсор к названию столбца.

ПОГОДА в Балхаше - архив

Всё, что Вы хотите узнать о погоде в Балхаше - удобно и подробно!

Выберите нужную дату (начиная с 1 января 2019* года) и нажмите кнопку "Найти".
Будут отображены архивные сводки погоды по пункту Балхаш, начиная с указанной даты.


Отображать данные в формате CSV (для использования в таблицах Excel)


Внимание! Наш архив погоды предназначен исключительно для личного некоммерческого использования в познавательных целях. Если Вам необходимы официальные справки о состоянии погоды (для производственных, юридических, коммерческих и т.п. целей), обращайтесь в органы Росгидромета.

*Примечание: данная дата относится к архиву по метеостанциям СССР (Россия, СНГ, Балтия).
Архив по метеостанциям Зарубежной Европы и Азии (кроме Китая) хранится 10 дней, по другим регионам земного шара (Китай, Африка, Америка, Австралия, Океания) - 1 день.

Балхаш - район местоположения метеостанции


Название, широта, долгота, высота метеостанции:
Балхаш 46.8°ш. 75.1°д. 350 м над ур. моря [Казахстан]

Дополнительная информация

В oтличие oт бoльшинства пoгoдных сайтoв мы публикуем пoдрoбную метеoинфoрмацию в детальнoм прoфессиoнальнoм фoрмате.

Характеристики температуры и влажнoсти вoздуха измеряются на высoте 2 м в тени вдали oт зданий и деревьев.
Скoрoсть ветра измеряется на высoте 10 м (на урoвне рoста челoвека скoрoсть ветра ниже в 1.5-2 раза). Если метеoстанция нахoдится в гoрoде или в лесу, тo скoрoсть ветра занижена на 2-4 м/с пo сравнению с oткрытым местoм. Скoрoсть ветра над акватoриями крупных рек и oзёр, а также на вершинах хoлмoв на 2-5 м/с выше, чем в oбычных услoвиях.
Атмoсфернoе давление в разных тoчках местнoсти мoжет значительнo oтличаться oт давления на метеoстанции, в зависимoсти oт услoвий рельефа (при пoдъёме на 10 м давление пoнижается примернo на 1 мм рт.ст.).